Showing default

OPS 0100 (TRANSIT 15), 2754

Orbit data source: Space-Track

OPS 0100 (TRANSIT 15), 2754 is a payload satellite owned by USN NAVAIR (US) in LEO that was launched on Fri, 14 Apr 1967 UTC via an SCOUT A launch vehicle from the Air Force Western Test Range (AFWTR). Payload-class satellites include a variety of spacecraft equipped with specific instruments for various scientific and technological missions. These include communications satellites like Starlink; space stations such as the ISS; scientific satellites like the Hubble; Earth observation satellites from companies like Planet Labs, Umbra, and HawkEye 360; GPS; miniature CubeSats for education and research; and military/defense satellites.

Loading next visibility...
Identifier
2754, 1967-034A
Orbit
LEO
Country
Flag of USUS
Related business
Manufacturer
APL
Mission
Spacecraft
Bus & Motor
TRANSIT 5, Unknown motor
Mass
~50 kg wet, ~50 kg dry
Launch date (UTC)
1967-04-14 (59 years ago)
Launch vehicle
SCOUT A
Launch site
Air Force Western Test Range (AFWTR)
Object type
Payload
Rocket body
Debris
Shape & HBR
Unknown
Radar Cross Section
Medium (>0.1 m² and <1 m²)

Expand to show TLE details & history
Last TLE update: 11 hours ago

TLE from 11 hours ago
0 OPS 0100 (TRANSIT 15)
1 02754U 67034A   26174.88843199  .00000077  00000-0  95066-4 0  9992
2 02754  90.2344  35.3360 0021163 123.1093 247.7182 13.57406966927022
Epoch: 2026-06-23T21:19Z
TLE epoch observation values (Epoch: 2026-06-23T21:19:20.523Z)
Latitude
10.55101°
Longitude
163.40352°
Altitude
1,053.333 km
Speed
7.323 km/s
True Right ascension
02h 21m 10s
True Declination
10° 29' 30"
Sunlit
Object was in daylight at epoch
Visualization orbit readout
Latitude
Unknown
Longitude
Unknown
Altitude
Unknown
Speed
Unknown
Apparent Right ascension
Unknown
Apparent Declination
Unknown
Sunlit
N/A
Visualization observer readout
Local Sidereal Time
19:46:07
Azimuth
Unknown
Elevation
Unknown
Doppler factor
Unknown
Orbital elements
Apogee altitude
1,057.873 km
Perigee altitude
1,026.466 km
Semi-major axis
7,420.307 km
Eccentricity
0.00212
Inclination
90.2344°
RAAN
35.336°
Arg. of periapsis
123.1093°
True anomaly
247.49402°
Mean anomaly
247.7182°
Eccentric anomaly
247.60609°
Mean motion
3.39555 °/min
Orbital period
106.02 mins
BSTAR
0.000095066
Loading maneuver chart data...
Computing Atmospheric mass density...
Loading historical data...
Loading historical data...
Loading historical data...
Loading historical data...
Loading historical data...
Loading historical data...
Loading historical data...

Documentation

Showing up to 5 results
|